This is the latest recevied weather packets stored in our database for station/object EA5HRE-13. If no packets are shown the sender has not sent any weather packets the latest 10 day(s).
| Time | Temp. | Humidity | Pressure | Rain* | Wind** | Luminosity | Snow |
|---|---|---|---|---|---|---|---|
| 1787873713 | 25.56° C | 81% | 1015.7 hPa | 0 mm | - | - | - |
| 1787871912 | 25.56° C | 76% | 1015.5 hPa | 0 mm | - | - | - |
| 1787871012 | 26.11° C | 76% | 1015.4 hPa | 0 mm | - | - | - |
| 1787870111 | 26.11° C | 77% | 1015.2 hPa | 0 mm | - | - | - |
| 1787869211 | 26.11° C | 77% | 1015 hPa | 0 mm | - | - | - |
| 1787869200 | 26.11° C | 77% | 1015 hPa | 0 mm | - | - | - |
| 1787868746 | 26.11° C | 77% | 1014.8 hPa | 0 mm | - | - | - |
| 1787867848 | 26.11° C | 76% | 1014.5 hPa | 0 mm | - | - | - |
| 1787866945 | 26.11° C | 72% | 1013.8 hPa | 0 mm | - | - | - |
| 1787866046 | 26.11° C | 72% | 1013.4 hPa | 0 mm | - | - | - |
| 1787865144 | 26.67° C | 71% | 1013 hPa | 0 mm | - | - | - |
| 1787864244 | 26.67° C | 69% | 1012.7 hPa | 0 mm | - | - | - |
| 1787863344 | 26.67° C | 67% | 1012.5 hPa | 0 mm | - | - | - |
| 1787862444 | 27.22° C | 64% | 1012.2 hPa | 0 mm | - | - | - |
| 1787861543 | 27.22° C | 63% | 1012 hPa | 0 mm | - | - | - |
| 1787860642 | 27.22° C | 63% | 1011.7 hPa | 0 mm | - | - | - |
| 1787859742 | 27.22° C | 64% | 1011.4 hPa | 0 mm | - | - | - |
| 1787858841 | 27.22° C | 65% | 1011.2 hPa | 0 mm | - | - | - |
| 1787857941 | 27.22° C | 66% | 1010.9 hPa | 0 mm | - | - | - |
| 1787857041 | 27.22° C | 66% | 1010.7 hPa | 0 mm | - | - | - |
| 1787856140 | 27.22° C | 66% | 1010.4 hPa | 0 mm | - | - | - |
| 1787854340 | 27.78° C | 65% | 1010.1 hPa | 0 mm | - | - | - |
| 1787853439 | 27.78° C | 65% | 1010.6 hPa | 0 mm | - | - | - |
| 1787852539 | 27.78° C | 64% | 1010.5 hPa | 0 mm | - | - | - |
| 1787849838 | 28.33° C | 61% | 1010.4 hPa | 0 mm | - | - | - |
* Rain latest hour (hover to see other rain measurements)
** Current wind speed in m/s (hover to see current wind gust speed)